Wind_Speed
0 3 3 3 3 3 2 3 4 3 1 3 4 4 6 5 1 4 6 3 4 7 7 9 12 12 10 9 10 10 11 13 13 14 14 14 15 16 17 18 19 19 21 23 23 22 21 21 20 20 19 18 17 17 16 15 16 16 15 14 13 14 14 13 14 14 14 15 15 15 15 16 17 18 18 18 19 20 20 21 22 22 23 23 22 23
1 4 2 3 5 4 3 2 1 1 1 3 5 5 4 5 1 5 4 1 1 3 6 9 12 11 9 9 9 9 10 11 11 12 13 14 14 15 15 16 16 17 18 20 21 20 19 19 18 17 18 17 17 18 18 18 19 18 17 17 18 19 19 19 20 19 20 20 20 20 20 20 19 19 20 19 20 20 20 20 21 21 22 21 21 22
2 2 3 5 3 1 2 1 1 2 3 3 3 4 4 2 5 5 4 3 1 3 7 10 10 9 8 9 9 9 10 10 10 11 12 12 13 13 13 13 14 14 17 19 19 19 18 18 17 18 19 19 19 20 21 21 21 20 20 21 22 22 22 22 23 22 22 22 22 22 21 21 20 20 21 21 21 22 21 21 21 22 22 23 23 23
3 2 4 4 2 1 1 2 2 2 3 3 2 4 3 4 5 1 3 5 4 3 10 11 8 7 8 8 8 9 10 11 11 12 13 13 13 13 12 12 13 14 16 17 18 18 18 18 19 20 21 21 22 22 23 23 23 23 24 25 26 25 25 25 25 24 24 23 23 22 22 22 22 22 23 23 23 23 24 24 24 24 24 25 24 24
3 4 3 2 0 2 2 0 1 2 2 3 4 5 3 4 3 0 7 8 8 7 11 12 6 4 7 7 7 7 8 10 10 11 12 12 12 12 13 14 14 14 15 16 17 18 18 19 19 20 22 23 24 24 25 25 25 27 27 28 28 28 27 26 26 25 24 24 23 23 22 22 22 23 24 25 25 25 26 26 26 26 26 26 25 25
2 3 3 2 0 1 2 1 2 3 4 1 2 3 4 2 4 9 12 9 5 3 10 10 3 3 8 9 8 7 7 8 8 9 10 10 10 10 11 12 13 14 15 15 16 17 18 19 20 21 23 24 25 26 26 26 26 27 29 29 29 28 28 27 26 26 25 24 24 24 24 24 24 25 25 25 26 26 27 27 27 27 27 26 26 26
2 2 1 2 1 2 2 1 3 3 4 3 1 2 2 3 8 13 13 8 2 1 9 12 7 1 7 9 10 9 8 8 7 8 9 8 8 9 9 9 10 11 12 14 15 16 17 18 19 21 22 24 25 26 26 26 26 27 28 29 29 29 28 28 27 27 26 25 25 25 25 25 25 26 26 27 27 28 28 29 29 29 28 28 28 28
2 2 2 3 3 3 2 2 3 3 4 2 2 1 2 6 9 12 11 7 2 2 6 12 7 3 4 8 12 12 9 9 8 7 8 8 8 8 9 8 9 9 10 12 13 15 16 17 18 20 22 23 24 25 25 25 26 27 29 30 30 29 28 28 27 27 26 26 25 25 25 25 25 27 27 28 28 28 29 30 30 30 30 30 30 30
1 4 5 5 4 3 3 3 4 3 3 2 2 1 1 3 5 7 7 5 1 1 4 10 8 5 2 7 11 11 10 9 8 8 7 8 8 8 8 7 8 8 9 11 12 13 14 15 17 19 20 22 23 24 25 25 26 27 29 30 31 30 28 27 27 26 26 26 25 25 26 26 27 27 28 29 29 30 30 31 31 31 31 32 32 32
2 3 4 4 3 4 3 3 3 3 2 2 2 1 2 2 1 3 5 4 1 4 6 8 12 7 1 7 9 10 10 9 8 7 7 8 7 7 7 6 6 6 7 9 10 11 13 14 16 17 19 20 22 24 25 25 27 29 30 31 30 29 28 27 26 26 26 26 26 26 27 27 28 29 30 30 31 31 32 32 32 32 33 34 35 35
1 1 1 2 3 3 3 2 2 2 1 1 2 2 1 2 2 1 2 2 3 5 3 3 11 9 3 5 8 6 5 7 9 7 7 8 7 6 6 5 4 4 5 6 8 10 12 14 16 17 19 21 23 25 26 27 29 31 32 32 30 28 27 26 26 26 25 25 25 25 26 27 28 29 30 31 31 31 32 33 33 33 34 35 35 36
2 2 1 2 3 4 3 1 1 1 1 2 3 3 3 2 3 2 2 3 4 3 2 3 5 8 4 3 4 3 5 8 9 7 8 9 7 6 5 3 3 3 3 4 7 10 13 14 15 18 20 23 25 27 28 30 32 33 33 32 31 29 28 27 26 25 25 25 24 25 25 26 27 28 29 30 31 31 31 32 32 33 34 36 36 36
2 3 2 0 2 6 4 3 1 3 2 3 3 3 4 3 1 3 1 2 4 0 3 3 0 3 1 3 4 6 8 8 8 9 9 9 8 6 5 3 2 2 2 5 8 11 12 13 14 18 20 23 26 28 29 32 34 33 33 32 31 29 28 27 27 26 26 25 25 25 25 26 26 27 28 29 30 31 31 31 31 32 34 36 37 37
2 3 4 2 1 7 7 4 3 1 3 4 3 4 4 4 4 5 3 2 3 2 4 2 1 2 2 5 4 7 10 10 11 11 10 9 7 6 5 4 2 3 4 6 8 10 12 13 15 18 21 23 26 28 30 34 34 31 31 31 30 29 28 28 28 27 27 26 25 25 26 26 26 28 29 29 30 31 31 31 31 31 33 35 38 37
3 0 6 6 4 7 7 5 4 5 4 3 2 3 3 3 5 5 4 4 4 2 1 1 1 1 2 4 5 8 10 11 12 11 10 9 7 5 3 3 3 3 4 6 8 9 10 12 15 17 20 23 25 28 31 34 32 29 29 29 28 28 28 28 28 28 28 27 25 26 27 27 26 27 30 30 30 30 31 32 32 32 32 34 37 38
4 2 3 3 2 6 5 2 3 5 2 1 1 2 2 3 4 4 2 2 4 4 1 1 0 2 3 3 6 8 9 9 9 9 9 8 6 5 4 5 4 3 3 4 5 6 7 10 14 16 20 23 25 29 32 32 29 26 28 28 27 29 29 28 29 29 28 27 26 27 28 28 27 27 30 31 31 31 30 31 32 33 33 33 35 37
3 2 3 2 1 3 4 2 3 4 3 2 1 3 3 2 3 3 1 1 2 4 2 2 2 2 2 3 5 6 6 6 6 5 7 6 5 5 6 8 6 4 3 4 4 5 8 11 14 17 22 24 26 30 31 29 26 26 29 29 29 31 29 29 30 29 28 27 26 27 28 28 27 28 29 31 32 32 31 31 32 34 34 34 35 36
3 4 3 3 1 3 2 1 2 4 4 3 3 5 3 2 2 1 1 2 3 5 2 2 1 1 2 1 5 6 5 5 4 3 5 3 3 3 6 9 6 4 3 4 4 5 9 12 14 18 21 22 25 29 30 28 26 28 29 29 30 31 30 30 30 29 29 27 26 27 29 29 29 30 31 31 32 32 32 33 34 35 36 36 36 36
2 4 1 2 2 3 2 1 1 4 6 4 2 3 3 1 2 1 1 3 4 6 4 0 1 0 0 1 4 7 6 5 3 3 4 3 4 2 6 10 7 4 4 4 5 6 8 10 13 15 17 20 25 29 29 26 25 28 30 29 30 31 31 31 31 30 29 27 26 28 30 30 31 32 32 32 32 32 33 34 35 35 36 36 36 36
1 2 1 2 1 2 2 3 2 4 5 3 1 2 3 1 3 2 2 2 3 6 5 3 2 1 3 3 3 6 5 4 2 2 2 5 4 3 7 10 7 5 5 5 6 6 7 10 13 14 15 21 27 28 28 25 23 27 30 30 31 32 31 31 31 30 29 27 27 29 31 31 32 33 33 33 33 34 34 35 35 36 36 35 35 35
1 1 3 3 2 1 2 5 5 4 5 4 4 5 5 2 2 2 1 1 2 5 5 6 5 2 4 3 1 4 4 4 3 2 2 5 4 4 8 9 8 6 5 6 7 7 8 11 15 16 16 22 26 25 26 24 21 25 29 30 32 32 31 31 31 30 29 27 28 31 32 33 33 34 34 34 34 35 35 35 35 35 35 35 35 33
3 1 4 6 4 3 4 4 3 4 6 6 5 4 4 3 2 3 2 2 1 4 3 6 6 1 3 2 3 4 4 5 4 2 2 5 5 6 9 9 7 5 6 8 8 9 9 12 16 16 16 20 23 22 23 22 21 25 28 30 31 31 31 31 31 29 28 28 30 31 33 34 34 34 34 34 35 35 34 35 35 33 31 32 32 28
3 2 3 4 4 4 4 3 2 4 6 7 7 4 3 2 2 4 5 3 2 2 1 3 4 1 3 2 4 4 4 5 3 2 4 6 6 7 10 9 6 6 7 8 9 9 10 13 16 16 17 20 21 21 21 22 23 27 29 31 32 31 32 31 30 28 28 29 30 31 33 34 34 33 34 34 34 34 34 33 32 29 27 27 28 26
2 1 3 3 1 3 4 4 2 2 2 4 6 6 3 2 2 3 3 3 3 3 2 3 4 0 4 4 4 5 4 2 1 4 5 7 8 9 11 10 7 7 8 8 9 9 10 14 18 18 18 20 21 21 22 24 26 29 31 33 32 32 32 31 29 28 28 29 29 31 33 34 33 32 33 34 33 33 32 29 27 26 26 26 26 26
2 1 3 4 2 0 2 2 2 2 1 3 3 4 4 2 3 2 1 2 2 2 3 5 5 1 4 5 4 4 2 2 3 5 7 8 9 12 12 10 8 8 8 9 10 11 14 18 20 19 19 21 21 22 23 25 28 31 32 33 32 32 31 27 25 25 25 26 28 32 34 33 32 30 30 31 30 29 29 27 26 26 27 27 27 27
2 1 2 3 4 4 4 3 3 3 3 2 3 5 6 4 3 2 1 2 1 2 3 4 4 2 3 7 5 2 2 4 5 7 9 10 11 13 12 9 8 9 9 10 11 13 17 20 19 19 19 20 21 22 25 27 30 31 32 31 31 30 27 23 21 20 21 22 27 32 33 30 28 26 26 27 27 28 29 29 28 29 28 28 31 32
1 1 3 2 2 4 5 4 4 4 4 2 4 6 7 5 3 2 1 2 2 4 4 0 1 6 3 5 4 3 4 5 7 9 12 12 13 14 11 9 9 10 10 11 13 16 20 20 18 19 20 21 23 24 26 28 29 30 30 30 28 26 24 23 22 21 20 24 29 32 29 27 26 26 26 28 30 31 32 32 31 32 32 33 36 37
2 2 3 1 3 3 3 3 2 3 2 2 3 4 6 7 4 2 2 2 3 4 4 1 1 8 7 1 2 3 5 6 9 12 14 14 15 14 11 10 11 10 11 12 14 18 20 19 19 21 22 24 25 25 25 25 26 26 26 28 26 24 24 24 23 23 25 27 29 28 25 24 27 29 31 33 35 34 33 33 35 36 37 37 38 38
1 2 2 1 3 3 2 2 1 1 3 4 3 3 5 6 5 4 3 1 2 4 7 7 7 10 8 2 1 4 6 8 11 14 15 15 16 14 11 11 11 10 12 14 16 19 20 20 22 24 25 26 25 23 21 22 22 23 25 26 25 24 23 22 21 23 27 27 26 26 26 27 30 33 35 35 37 37 36 37 38 40 40 39 39 39
0 1 2 1 3 3 1 0 1 2 4 4 4 4 4 3 3 2 2 2 3 6 9 10 11 11 7 1 2 5 7 9 13 15 16 17 17 14 11 12 11 11 14 16 19 21 20 21 23 24 24 24 21 18 18 19 21 24 26 26 24 21 19 21 22 22 24 27 29 30 33 34 34 36 36 37 39 39 40 40 41 41 42 41 40 39
3 2 2 1 3 2 2 1 1 3 3 3 3 4 4 2 1 0 1 2 4 8 9 9 11 9 2 1 4 8 9 12 15 17 17 18 17 14 12 12 11 13 16 18 20 21 20 20 22 22 22 20 17 16 17 19 24 27 28 27 23 21 21 23 24 23 26 31 33 34 36 37 37 38 38 39 40 40 41 42 42 42 42 41 40 39
4 2 1 0 3 1 2 1 1 2 3 2 1 3 5 3 1 2 3 3 5 9 10 9 9 5 1 2 8 10 11 14 16 16 18 18 16 12 11 11 12 14 17 19 21 21 20 21 22 22 21 18 16 18 20 23 27 28 29 28 25 24 27 28 27 29 32 34 34 36 37 38 39 40 40 40 40 41 42 43 43 43 42 40 39 39
2 1 1 2 4 2 1 1 1 3 2 1 1 2 3 3 3 4 6 6 6 6 6 7 6 4 4 7 9 11 15 17 15 16 19 19 14 10 9 11 13 16 20 22 22 21 21 22 22 22 21 17 17 21 24 27 29 28 29 30 29 28 30 30 31 33 35 35 36 37 38 39 40 40 41 41 41 42 42 43 43 42 41 40 39 39
1 1 1 1 3 3 5 5 2 2 2 2 3 2 2 4 5 5 8 12 10 5 4 6 5 4 6 9 9 13 18 17 16 19 20 15 11 8 9 12 14 18 22 22 21 20 21 23 23 21 18 15 19 25 28 28 29 29 30 31 31 31 31 32 33 33 35 36 37 38 38 39 40 40 40 41 41 42 43 43 43 42 40 39 38 38
1 1 1 0 2 3 5 6 3 2 3 2 4 1 3 5 6 8 13 14 9 6 6 6 5 5 8 11 12 16 17 16 19 22 17 10 8 8 11 14 17 20 21 21 20 21 23 24 23 20 17 17 24 28 28 27 29 31 32 31 31 31 31 32 33 34 35 37 37 38 39 39 39 40 40 41 41 42 42 42 42 41 39 38 37 38
1 2 1 0 1 2 2 4 4 3 2 2 3 2 2 2 4 7 11 9 6 5 5 5 6 8 10 13 17 18 17 18 21 18 10 7 8 11 16 20 21 21 21 21 22 23 24 22 19 17 19 24 29 28 25 28 31 32 32 31 31 31 31 32 33 34 36 37 38 39 39 38 39 40 40 41 41 41 42 41 40 39 37 37 37 37
1 1 0 1 2 2 2 2 3 3 0 2 3 1 0 2 4 6 7 4 5 6 4 4 6 10 13 16 18 18 17 18 16 8 6 6 11 17 23 24 22 22 22 23 23 23 23 19 15 16 22 28 30 27 25 29 31 31 32 31 31 31 31 32 34 35 36 38 38 38 38 38 39 40 40 40 41 41 41 40 39 37 36 36 36 36
5 2 2 1 1 1 2 2 3 3 1 1 3 4 2 2 4 3 5 5 5 9 3 5 8 12 16 17 16 15 13 12 9 1 3 4 14 21 23 22 21 22 23 23 23 22 21 18 17 22 27 29 29 28 27 29 31 31 31 31 30 31 32 32 34 35 37 38 38 38 38 38 38 39 39 40 40 41 41 40 38 36 34 35 36 36
6 3 1 1 1 1 1 3 2 2 2 2 4 4 1 2 2 4 4 3 5 7 4 7 9 12 15 15 13 12 9 7 5 4 5 10 16 20 20 20 21 22 22 22 22 20 19 20 23 26 28 28 28 28 28 29 30 30 30 30 30 31 31 33 34 36 37 38 38 38 38 38 38 38 38 39 40 40 40 39 37 35 33 34 34 35
4 3 2 2 2 1 1 2 2 3 1 3 5 3 1 1 5 4 5 3 4 5 6 6 9 12 12 11 10 8 6 6 8 12 15 18 19 18 18 20 21 22 23 22 20 18 19 22 26 27 27 28 28 28 29 29 30 30 29 29 30 30 31 33 34 36 37 37 37 37 37 37 37 37 38 38 39 39 39 37 36 34 33 33 33 34
1 2 1 2 1 1 2 2 3 3 0 4 4 1 1 4 5 3 7 4 1 4 6 6 10 12 10 9 9 8 8 11 15 20 21 20 18 17 17 19 21 22 22 21 19 19 21 24 26 27 27 27 27 28 29 30 30 30 29 29 30 30 31 33 34 35 37 37 37 37 37 36 36 37 37 37 37 38 38 36 35 34 33 33 32 32
0 1 0 0 0 1 1 2 4 3 2 5 3 1 3 3 3 4 6 7 6 8 9 9 11 11 9 10 11 11 14 16 18 20 20 19 18 18 18 20 21 22 21 20 20 22 24 25 26 27 27 27 27 28 29 29 30 30 30 30 30 30 31 32 34 35 36 36 37 37 36 36 36 36 36 36 36 38 38 36 34 33 32 32 31 31
0 1 1 1 1 1 1 2 4 4 3 7 2 1 5 4 6 10 11 12 10 9 11 12 11 11 11 11 12 14 17 19 19 18 18 19 18 17 19 21 22 22 22 21 21 23 24 25 26 27 27 27 27 28 28 29 30 30 30 30 30 31 32 32 33 35 35 36 36 36 36 36 36 35 35 35 36 37 37 36 34 33 32 31 31 32
2 1 1 1 2 1 1 1 1 2 3 5 3 4 5 7 12 15 15 13 10 9 12 13 11 12 14 13 14 16 18 19 18 17 18 18 17 17 20 22 22 22 22 22 23 24 24 25 26 26 26 26 26 27 28 28 29 30 30 30 30 31 32 32 33 34 35 36 36 36 36 35 35 35 35 35 36 36 37 36 34 33 32 30 30 32
3 2 1 2 3 2 4 7 7 6 7 9 10 9 10 13 17 17 14 13 12 12 13 14 13 14 15 16 17 18 18 17 17 17 18 18 17 18 21 22 21 22 22 22 23 23 23 24 25 26 25 25 25 27 27 28 29 30 30 30 30 31 32 33 33 33 34 35 36 36 36 35 35 35 35 35 35 36 36 36 36 34 33 31 30 30
3 3 2 1 2 5 11 15 16 15 14 13 13 13 14 15 16 16 15 14 13 14 16 17 16 16 17 17 18 18 17 16 17 18 17 17 18 19 21 21 21 21 21 22 22 22 23 24 24 25 25 24 25 26 27 27 28 29 30 30 30 31 32 32 33 33 34 35 36 36 36 35 35 35 35 35 35 35 35 36 36 35 33 31 30 29
4 6 4 2 2 3 5 7 8 9 12 12 13 14 15 15 15 16 17 16 16 17 18 18 17 17 18 18 19 19 17 16 17 17 16 17 19 20 20 21 21 20 21 21 21 22 23 24 24 25 25 25 25 26 27 27 28 28 29 29 30 30 31 31 32 32 33 34 36 36 35 35 36 36 36 36 35 35 35 34 34 34 32 30 29 28
4 7 5 4 4 5 7 8 9 14 18 17 15 13 12 14 16 17 18 19 19 18 18 18 18 18 18 19 19 19 17 16 16 17 17 18 19 20 20 21 21 21 21 21 21 22 22 23 24 24 25 25 25 26 26 27 27 28 28 28 29 30 30 31 31 32 33 34 35 35 35 35 36 36 37 36 35 35 35 35 34 33 31 29 28 26
5 6 4 3 4 7 10 11 11 13 14 12 11 11 13 15 17 18 20 20 19 18 18 19 19 18 18 20 19 18 17 16 16 17 18 19 19 19 20 20 21 21 21 21 21 22 22 24 24 25 25 25 26 26 26 26 27 28 28 28 29 30 31 31 31 32 33 34 35 35 35 35 35 36 36 37 36 35 34 33 34 33 32 30 25 22
6 4 3 2 3 5 5 4 4 6 8 8 9 13 16 18 19 20 21 20 19 18 19 18 18 18 19 20 19 17 16 16 16 17 18 18 18 19 20 20 21 21 21 21 21 22 22 23 24 25 26 26 26 26 26 26 27 27 27 28 29 29 31 32 33 33 34 34 35 35 35 35 35 35 36 36 37 36 35 33 32 32 31 30 25 19
11 7 6 5 5 7 10 11 9 9 10 13 15 17 19 21 21 21 19 18 18 19 19 18 18 18 19 19 18 17 16 16 17 17 18 18 18 18 19 20 20 21 21 21 22 22 22 23 23 24 25 26 26 26 26 26 27 27 27 27 28 29 30 31 33 34 34 35 35 35 35 35 35 35 35 36 36 37 37 37 36 33 32 31 28 23
Wind_Direction
296 241 240 272 305 320 324 291 293 338 340 265 259 252 252 244 181 95 117 100 59 68 74 99 111 112 108 103 100 93 89 85 84 88 87 86 85 83 82 80 77 75 75 80 82 80 79 77 74 72 68 64 62 58 51 46 40 33 26 18 12 9 2 353 346 341 336 333 330 326 321 318 314 309 306 302 298 296 295 294 294 294 294 295 296 296
244 259 294 354 347 345 346 336 328 284 230 244 250 246 243 231 119 85 124 123 341 98 106 117 109 100 103 102 97 91 84 76 79 88 89 90 90 86 85 82 80 78 77 80 79 76 74 70 68 64 60 53 48 43 36 31 26 18 13 7 4 360 354 351 349 346 344 342 340 338 333 330 327 320 316 313 309 306 304 302 301 301 301 303 304 306
243 269 26 15 349 346 37 79 189 225 222 233 250 243 254 192 124 94 85 68 37 128 134 135 112 97 105 98 88 82 78 73 75 85 89 92 92 87 85 83 83 79 75 75 73 69 65 60 56 51 46 40 35 31 26 21 15 9 5 3 360 357 353 351 349 346 345 343 340 337 333 331 329 324 320 320 317 315 313 312 312 312 313 313 315 316
299 32 25 358 318 259 39 94 177 218 224 225 242 255 251 147 162 197 93 83 46 114 146 137 114 104 113 103 89 81 85 86 81 83 85 85 87 84 83 82 82 78 72 70 66 60 55 49 45 40 35 31 25 21 17 12 7 5 4 3 0 357 354 351 348 346 344 341 338 335 332 330 328 324 321 320 318 317 316 316 317 318 319 319 320 319
346 38 5 325 324 288 290 77 217 260 276 227 225 266 271 169 203 59 116 112 71 96 143 136 123 143 149 141 122 105 102 99 92 92 87 83 86 84 83 81 78 77 71 66 60 53 47 41 37 33 29 24 19 14 10 7 7 7 5 3 0 357 354 351 348 344 342 339 336 332 329 324 321 318 317 316 316 316 316 317 318 318 319 320 319 318
27 36 339 307 102 2 297 317 356 298 292 278 205 288 299 217 147 121 136 145 106 136 175 174 205 176 158 162 150 140 129 112 104 104 95 89 90 83 80 78 75 73 67 61 55 47 41 36 31 27 23 18 13 11 9 7 7 6 3 360 358 355 352 349 346 343 341 340 337 334 331 328 325 322 320 319 318 318 317 317 318 318 318 318 316 315
36 26 292 337 334 328 307 330 25 323 286 304 39 351 287 166 143 146 159 179 190 191 186 201 246 219 167 178 164 152 138 125 118 111 107 98 90 83 80 78 74 70 62 56 49 41 36 30 25 21 16 12 10 9 8 5 3 2 359 356 355 353 350 348 346 344 343 341 340 338 335 334 332 330 328 327 326 326 324 323 323 322 321 320 318 315
349 360 26 1 331 322 346 30 23 319 290 333 45 357 150 151 159 167 178 205 234 53 163 194 233 275 211 179 161 156 143 138 136 120 115 108 99 91 85 83 80 73 63 53 43 34 28 22 18 15 12 10 7 5 3 1 359 358 357 354 353 352 349 348 346 344 343 342 341 339 337 336 334 332 330 329 329 328 327 326 325 324 323 321 318 316
357 21 15 343 343 14 21 7 355 300 286 33 84 6 75 146 184 183 200 227 226 2 212 193 202 258 236 144 152 163 161 157 149 136 129 121 112 104 94 90 84 72 58 46 35 26 20 15 12 10 8 5 1 360 358 357 356 355 354 353 352 350 348 347 344 343 343 342 341 340 338 337 335 332 331 329 328 327 326 325 324 323 322 320 318 316
15 26 4 330 356 17 8 1 348 295 302 64 125 140 98 103 137 187 228 243 208 255 255 194 187 221 228 146 166 184 190 181 152 135 135 129 121 115 105 99 91 72 52 41 31 22 14 7 2 0 359 357 356 356 355 353 353 351 351 351 350 349 347 346 344 343 342 342 342 341 338 336 334 332 329 328 328 327 326 325 325 324 322 320 318 317
22 55 41 19 17 336 316 16 12 317 356 128 195 226 173 156 124 146 215 222 232 240 277 190 194 218 244 161 171 189 193 168 148 137 137 134 125 120 111 103 96 76 59 42 24 9 1 356 353 351 352 353 354 353 352 351 351 349 349 348 348 348 346 345 344 343 342 342 341 339 336 335 333 331 329 328 327 327 326 326 326 324 322 320 319 318
100 116 68 36 19 335 274 220 93 151 181 223 252 275 267 219 161 184 154 163 238 234 43 31 199 219 244 162 144 105 99 129 141 139 138 134 125 118 105 93 87 68 58 22 356 348 350 352 351 352 353 353 352 351 350 350 349 348 348 348 348 347 345 345 344 342 342 340 339 337 335 334 332 330 329 328 328 328 327 327 326 323 321 320 319 319
83 104 26 221 39 5 316 276 111 162 222 284 288 296 294 300 255 248 222 194 246 184 73 36 143 213 213 78 89 101 104 110 110 113 124 124 116 103 77 69 64 30 3 343 338 341 348 353 352 352 352 350 349 348 347 348 348 348 347 347 348 347 346 345 344 343 343 342 341 339 336 334 333 331 330 329 329 329 328 327 325 323 321 319 319 319
54 125 32 40 60 8 348 343 18 359 334 346 348 341 325 323 308 285 290 274 275 62 85 53 337 234 130 84 94 109 105 100 97 100 105 105 103 91 69 53 15 344 332 329 333 339 345 348 347 347 346 346 346 346 345 346 347 346 347 348 347 347 347 347 347 347 346 345 344 341 338 336 335 333 331 331 331 330 328 326 324 322 321 318 318 318
327 27 26 23 353 350 5 25 360 311 320 5 2 324 320 335 322 300 309 322 317 335 97 124 287 288 74 92 108 110 107 103 99 98 97 96 94 85 64 29 357 331 323 320 328 339 341 341 342 342 343 343 344 344 343 345 346 345 346 348 347 348 349 348 347 347 346 345 343 340 339 339 337 333 331 332 331 329 327 324 323 322 321 317 316 317
309 316 32 26 331 343 4 29 321 301 302 61 284 295 340 351 316 296 322 347 314 303 290 155 106 41 63 108 119 116 116 113 110 106 101 99 91 76 37 5 340 308 313 311 321 339 336 335 339 339 340 340 340 340 341 343 345 342 344 347 346 347 348 346 346 345 344 344 341 339 339 339 337 332 330 330 329 328 326 324 323 321 320 318 316 317
327 330 27 27 97 32 9 341 339 339 317 299 339 356 3 337 293 301 330 136 258 283 292 131 134 107 119 157 145 139 134 131 139 131 113 103 90 72 26 1 335 297 298 297 308 326 324 328 334 334 336 336 336 338 340 343 344 341 343 346 345 346 346 344 344 344 343 342 339 338 338 337 335 331 329 328 327 327 325 324 323 321 321 319 317 316
317 303 12 24 32 53 14 302 75 37 346 336 16 1 337 244 252 318 302 290 294 293 288 141 140 169 189 168 153 165 161 142 144 138 129 100 57 52 14 358 336 293 286 297 308 319 321 327 331 330 333 335 335 337 341 341 339 339 343 344 343 344 344 343 344 343 342 340 336 335 336 335 332 330 328 327 327 326 325 324 323 321 320 319 318 317
292 294 38 93 332 357 7 259 144 61 35 42 38 341 337 299 307 350 323 317 313 304 302 159 120 117 88 83 169 192 186 151 125 122 127 26 3 7 358 352 334 294 283 301 309 311 320 327 330 330 329 332 334 336 339 339 335 337 341 342 342 343 342 342 342 341 340 338 333 332 333 332 331 329 328 327 327 326 324 323 322 320 319 319 319 318
263 304 14 131 305 314 3 23 23 34 35 59 86 6 19 326 307 334 322 304 299 301 310 311 308 52 43 17 192 191 172 143 117 113 90 10 353 331 344 342 328 303 290 304 309 307 315 323 330 331 325 329 333 334 337 338 333 335 338 340 340 341 341 340 340 339 338 335 331 330 332 331 330 329 329 328 327 325 324 323 321 320 320 319 318 317
295 297 317 332 6 337 25 28 13 9 9 4 14 18 9 334 302 311 262 195 307 302 310 312 310 44 58 14 117 139 129 119 93 84 38 1 342 324 337 334 325 311 299 311 316 311 315 320 328 330 324 328 332 333 335 335 332 332 335 337 339 340 340 339 338 338 336 332 330 330 331 331 330 330 329 328 326 325 324 322 321 321 320 318 317 314
351 300 303 321 353 35 56 45 13 36 48 35 25 15 349 338 330 308 302 84 7 311 313 307 305 32 72 35 89 108 114 112 88 61 346 346 336 325 332 329 320 312 310 320 320 314 317 322 328 329 324 327 330 331 333 332 330 331 333 336 338 338 338 337 335 335 334 331 329 330 331 331 330 329 327 327 325 324 323 321 320 319 316 315 314 310
334 294 298 320 359 45 85 105 74 63 78 76 60 32 335 336 358 322 324 357 344 322 326 285 292 40 101 85 94 101 112 118 86 18 340 337 333 328 331 327 314 311 318 323 321 318 318 324 330 329 323 325 328 329 331 330 330 332 333 335 337 336 335 334 333 332 331 330 329 330 331 330 329 326 325 325 324 322 321 319 318 316 311 309 308 306
327 311 318 323 41 124 141 146 165 174 125 87 60 34 7 351 327 298 311 334 323 337 353 295 296 41 139 141 118 107 107 120 20 356 342 332 329 328 328 324 313 311 317 320 323 322 321 325 330 328 324 325 327 328 329 329 330 332 334 335 335 334 333 332 332 330 328 328 328 329 331 330 327 324 323 323 321 320 319 316 313 312 310 308 304 303
360 29 328 333 353 84 162 170 203 203 50 40 37 25 24 1 300 272 245 281 283 10 1 303 300 21 133 154 147 126 94 340 333 343 337 328 325 325 325 321 314 313 316 319 322 324 326 329 330 327 325 325 326 327 327 328 330 331 332 334 334 333 333 331 328 325 324 323 324 328 330 328 324 321 320 320 318 317 317 314 311 311 310 308 304 303
5 15 350 5 8 353 340 334 337 333 337 16 34 15 13 7 331 306 280 294 326 12 336 290 298 357 139 170 183 203 308 326 330 332 331 324 320 323 323 318 317 317 315 319 322 325 328 329 328 325 324 325 326 327 326 327 328 329 331 332 333 333 332 327 320 317 317 317 322 327 328 324 320 317 316 317 317 316 317 316 314 312 311 310 309 310
140 61 28 21 325 315 325 332 356 345 314 331 18 5 5 7 338 305 298 331 337 312 303 192 312 320 297 187 203 278 311 324 324 325 326 322 321 324 321 315 316 314 314 320 323 326 328 328 326 324 325 326 326 326 325 325 326 327 329 331 331 330 327 324 320 317 317 319 324 326 323 320 319 318 318 319 320 319 318 317 316 314 314 314 315 314
168 42 41 339 276 273 305 322 349 2 358 39 29 9 10 8 6 37 56 13 327 298 303 50 322 307 310 218 201 308 323 323 321 322 322 320 321 321 316 313 313 311 315 322 324 327 328 326 325 325 325 326 325 324 324 324 324 324 325 328 329 327 324 323 322 322 322 323 324 323 319 318 321 322 323 322 321 320 319 318 318 317 317 318 317 316
161 7 71 208 272 253 258 295 291 43 81 81 57 33 22 17 32 65 107 115 7 312 298 311 306 298 303 301 299 327 325 319 319 319 317 316 318 317 312 312 312 312 318 323 326 329 328 325 325 325 324 324 324 323 321 321 322 322 324 326 326 323 322 322 321 321 324 323 322 322 322 323 325 325 324 323 321 321 321 320 320 320 320 319 317 316
290 4 95 217 271 237 203 334 220 176 136 104 71 49 32 31 51 59 194 213 319 292 283 295 296 292 296 307 314 321 322 316 315 315 313 315 317 314 310 312 312 315 321 325 327 328 325 323 323 323 323 324 323 321 320 319 321 323 324 325 323 319 320 322 321 319 321 324 325 327 328 329 328 326 324 324 324 323 323 322 322 322 321 320 318 317
355 20 86 212 265 230 167 118 150 175 161 135 97 60 32 24 92 7 253 268 300 287 283 291 292 289 285 108 312 314 317 313 312 313 314 315 315 309 307 310 312 317 322 324 326 326 323 321 321 322 323 322 320 321 321 320 322 324 326 325 323 321 322 324 323 321 324 328 329 330 331 331 329 327 326 326 326 325 324 324 324 323 322 320 319 318
5 16 90 311 321 350 149 165 175 162 157 155 138 32 12 355 274 277 269 275 297 297 296 294 293 301 48 337 312 312 313 313 312 313 315 315 312 305 303 307 312 319 323 325 326 325 322 321 322 322 323 322 320 322 323 322 323 325 326 326 325 325 326 326 326 328 330 330 331 332 332 331 329 327 327 327 326 326 325 325 324 323 322 320 319 317
358 340 53 341 328 1 63 307 221 178 184 156 113 12 344 302 276 268 261 272 285 286 291 298 308 338 343 319 314 317 319 319 315 314 315 313 307 299 299 308 316 321 323 325 325 323 321 321 322 322 322 321 320 322 324 325 325 325 326 327 328 328 328 329 330 332 333 332 334 334 333 331 330 329 328 328 327 327 327 326 324 323 321 320 318 317
61 10 68 359 322 326 329 322 216 190 324 16 105 96 301 276 268 263 278 293 291 257 251 290 307 324 324 318 318 318 318 316 311 310 311 305 295 294 302 312 319 321 322 324 323 320 319 320 321 320 319 318 320 324 326 326 325 326 327 329 330 330 331 332 333 334 334 334 336 335 334 332 330 329 329 328 328 328 327 326 323 322 322 320 318 316
88 64 111 72 304 301 325 335 330 348 13 88 129 79 309 265 242 257 276 283 273 238 239 267 283 301 315 316 313 310 310 309 305 305 303 287 275 291 311 317 320 321 321 322 321 319 319 319 320 320 319 321 324 326 326 326 327 328 330 332 332 333 334 334 334 335 335 336 336 335 334 333 331 330 329 329 329 328 327 325 323 322 322 319 317 317
69 110 136 43 323 295 331 354 340 351 53 156 209 281 314 257 250 284 288 270 218 204 229 255 285 303 310 312 312 310 308 306 301 294 279 257 268 297 315 318 319 320 320 320 320 319 319 319 319 319 321 326 328 327 325 327 329 330 332 335 334 334 335 334 335 336 336 336 336 335 335 333 331 331 330 330 329 328 326 325 323 323 322 320 318 318
48 142 228 29 37 343 297 274 280 291 215 180 207 200 101 307 304 309 304 276 181 175 208 270 295 305 309 311 312 312 308 304 301 278 219 244 292 311 317 316 317 318 318 319 319 319 320 318 315 318 324 329 331 329 327 328 330 332 334 336 336 335 335 335 336 336 336 336 336 336 335 334 333 332 331 330 329 328 326 325 325 325 324 322 322 322
41 32 338 336 40 5 280 288 298 294 298 127 153 155 155 292 293 263 276 280 170 157 188 288 291 304 313 314 314 317 313 306 307 295 163 289 313 318 317 316 316 317 319 321 321 321 320 318 316 323 330 333 333 331 329 330 332 334 335 336 336 335 335 336 337 337 336 336 336 336 335 335 334 332 331 330 330 328 327 327 327 327 327 326 325 324
46 37 42 58 46 54 309 326 310 266 303 92 142 159 191 287 231 192 256 285 162 169 241 286 288 302 313 313 313 318 316 306 311 340 344 323 317 316 315 316 317 319 322 324 323 321 320 321 324 329 333 333 332 332 332 333 334 336 336 336 335 334 336 338 338 337 336 336 337 337 336 335 334 332 331 331 330 329 328 329 330 330 329 329 328 326
43 9 18 48 47 109 231 316 260 245 294 117 148 175 307 193 172 205 301 324 160 206 266 280 291 304 309 308 307 304 296 292 303 314 318 315 312 312 314 316 319 322 324 325 324 322 321 324 329 333 334 334 333 333 335 335 336 337 336 335 335 336 337 338 338 337 336 337 337 337 336 335 334 333 332 331 331 330 330 332 333 333 332 332 330 327
44 354 7 46 47 175 215 281 271 265 224 135 158 211 161 161 179 259 320 350 156 265 290 290 299 306 304 300 298 287 283 291 297 302 307 309 310 311 312 315 319 323 325 326 326 324 324 326 331 334 335 335 335 336 337 337 337 336 335 335 336 337 337 337 337 337 337 338 337 337 336 336 335 334 333 333 332 331 333 336 337 335 335 334 331 329
53 347 293 278 293 188 197 254 274 282 161 152 174 211 169 187 279 315 331 333 315 306 310 305 304 306 300 293 290 286 289 297 300 302 305 308 309 310 312 317 322 325 328 329 327 327 328 330 333 335 336 337 337 338 339 337 336 336 335 336 337 336 336 336 336 337 338 338 337 337 337 337 336 335 335 335 335 334 337 340 340 338 337 336 334 333
158 324 297 265 229 264 273 261 298 315 164 158 179 248 174 202 309 322 319 314 305 301 309 308 303 303 301 295 291 291 295 300 303 303 306 309 310 310 314 320 325 329 331 330 329 330 331 332 334 336 336 338 339 339 339 337 336 336 336 336 337 335 335 336 337 337 338 338 338 338 338 337 337 338 337 338 338 338 340 343 342 341 341 339 337 336
188 202 306 267 199 235 303 263 322 9 149 181 246 274 236 259 294 304 302 299 297 300 307 307 302 300 301 299 296 298 300 302 304 305 308 311 311 311 316 323 327 329 331 331 331 331 331 332 334 335 336 338 339 339 340 339 336 335 336 336 336 335 335 336 337 338 339 339 339 339 339 338 339 340 341 342 342 341 343 345 346 344 344 342 340 338
192 189 282 259 211 229 270 267 276 298 292 275 271 269 270 285 297 300 293 287 292 298 302 303 301 299 301 302 301 302 302 302 303 306 309 310 310 313 318 324 327 329 330 330 330 331 331 332 333 334 336 340 340 339 341 340 337 336 336 337 336 335 335 336 337 338 340 341 341 340 339 339 340 342 344 346 345 344 345 348 349 347 346 345 343 337
202 178 166 201 239 268 268 261 263 275 284 282 279 281 287 294 300 301 292 283 286 296 300 303 303 301 301 304 305 304 302 301 303 308 310 309 310 315 320 324 327 329 329 328 329 331 331 332 333 334 336 340 341 341 342 341 339 336 336 337 336 336 336 336 336 339 341 342 341 341 341 341 342 344 346 348 348 347 348 350 350 349 349 347 342 335
196 183 194 224 247 287 272 238 236 263 278 282 284 286 292 298 299 297 292 288 292 298 301 304 305 304 305 308 309 306 304 304 306 309 310 309 313 318 322 324 327 329 329 328 329 331 331 333 334 335 337 339 341 342 342 342 339 337 337 338 337 336 336 336 338 341 343 342 341 342 342 344 345 346 347 348 350 351 351 351 352 352 351 349 343 334
172 180 212 233 214 239 266 266 271 281 282 282 281 280 286 297 299 297 296 297 299 302 305 308 309 308 309 312 312 309 307 308 309 310 310 311 316 321 322 324 327 329 328 328 330 331 332 334 336 336 337 339 341 342 343 341 339 338 338 339 338 336 336 337 340 342 343 343 342 343 344 346 347 347 347 347 350 353 353 353 354 354 353 352 345 333
148 170 200 223 233 254 266 272 281 286 280 270 270 280 291 299 301 301 302 303 304 306 308 309 309 308 310 313 313 310 309 309 311 311 311 314 318 321 321 324 327 328 327 328 330 332 333 335 337 337 337 339 340 342 341 340 338 338 339 339 338 337 336 337 340 343 343 343 343 343 344 347 348 348 347 346 348 353 355 355 355 355 355 356 352 341
164 183 174 180 258 271 273 283 293 293 285 277 282 295 301 303 304 304 303 304 306 306 307 307 307 309 312 314 313 311 309 309 311 311 312 315 319 321 322 324 326 327 327 327 330 332 334 336 337 337 337 339 340 340 340 338 337 337 338 339 338 337 337 337 340 342 343 342 342 342 344 347 349 349 348 347 347 350 353 356 358 358 357 358 359 357
202 212 191 196 248 269 283 296 292 277 279 287 294 298 300 303 305 304 303 304 305 305 307 307 306 309 313 314 313 311 309 309 311 312 312 316 320 321 322 324 326 326 326 327 329 331 334 336 337 337 338 339 339 338 338 337 336 336 337 338 338 338 338 338 340 342 342 341 340 340 343 345 348 348 348 348 348 348 351 353 355 358 360 359 0 3
Height
1518 1516 1515 1514 1514 1515 1517 1517 1517 1518 1519 1518 1517 1516 1515 1513 1518 1528 1533 1535 1533 1536 1544 1546 1547 1554 1557 1560 1562 1562 1563 1562 1562 1563 1563 1564 1564 1564 1565 1565 1565 1564 1564 1565 1564 1563 1562 1562 1561 1561 1560 1560 1559 1559 1558 1557 1557 1556 1555 1555 1554 1553 1553 1552 1551 1550 1549 1548 1547 1546 1545 1544 1543 1542 1541 1540 1539 1538 1537 1535 1534 1532 1531 1530 1528 1526
1518 1515 1515 1518 1519 1520 1521 1522 1522 1521 1521 1520 1517 1516 1515 1513 1521 1531 1534 1535 1534 1536 1548 1551 1551 1557 1560 1561 1563 1563 1564 1563 1564 1564 1565 1566 1566 1566 1567 1567 1567 1567 1566 1566 1565 1564 1564 1563 1563 1562 1561 1561 1560 1559 1558 1557 1557 1556 1555 1554 1553 1553 1552 1551 1550 1549 1548 1546 1545 1544 1543 1542 1540 1539 1538 1537 1536 1535 1534 1532 1531 1530 1528 1526 1525 1523
1515 1515 1519 1523 1524 1524 1523 1523 1523 1522 1521 1519 1517 1515 1514 1515 1524 1532 1535 1537 1534 1536 1547 1551 1552 1559 1562 1562 1564 1565 1565 1566 1566 1566 1566 1567 1567 1568 1568 1568 1568 1568 1568 1567 1566 1565 1565 1564 1563 1562 1561 1561 1560 1559 1559 1558 1557 1556 1555 1554 1553 1552 1551 1550 1549 1547 1546 1545 1544 1543 1541 1540 1538 1537 1535 1534 1533 1531 1530 1529 1527 1526 1524 1523 1521 1520
1514 1517 1524 1526 1525 1524 1523 1523 1523 1521 1519 1517 1516 1514 1513 1518 1521 1523 1533 1540 1536 1536 1543 1548 1554 1561 1563 1564 1566 1567 1567 1568 1568 1568 1568 1568 1569 1569 1569 1570 1570 1569 1569 1568 1567 1566 1566 1565 1564 1563 1562 1562 1561 1560 1559 1558 1557 1556 1555 1554 1553 1551 1550 1548 1547 1546 1545 1544 1542 1541 1539 1538 1536 1534 1533 1531 1530 1528 1527 1525 1524 1523 1521 1519 1518 1517
1518 1523 1527 1526 1525 1524 1522 1521 1521 1518 1514 1514 1517 1514 1512 1519 1519 1519 1531 1538 1537 1541 1543 1544 1549 1555 1561 1563 1565 1569 1568 1569 1570 1569 1570 1570 1571 1571 1570 1571 1570 1570 1570 1569 1568 1567 1567 1566 1565 1564 1563 1563 1562 1561 1560 1558 1557 1556 1555 1554 1552 1551 1549 1547 1546 1545 1543 1542 1541 1539 1538 1536 1535 1533 1531 1529 1527 1525 1524 1522 1521 1519 1518 1517 1515 1514
1521 1527 1528 1525 1524 1524 1521 1520 1521 1519 1514 1512 1517 1519 1517 1518 1520 1525 1531 1530 1534 1541 1541 1537 1531 1537 1555 1561 1561 1567 1567 1569 1571 1570 1571 1571 1572 1572 1571 1572 1571 1571 1570 1570 1569 1568 1568 1567 1566 1565 1565 1564 1563 1561 1561 1559 1558 1557 1555 1554 1552 1550 1549 1547 1545 1543 1542 1540 1538 1537 1535 1533 1531 1530 1528 1526 1525 1523 1521 1520 1518 1517 1516 1514 1513 1511
1525 1528 1528 1525 1523 1523 1520 1519 1524 1524 1516 1512 1519 1525 1522 1519 1521 1526 1528 1522 1522 1525 1530 1533 1522 1525 1549 1558 1559 1564 1566 1568 1571 1570 1572 1572 1572 1573 1573 1573 1573 1572 1572 1571 1570 1570 1569 1568 1567 1566 1565 1564 1563 1562 1562 1560 1559 1557 1555 1554 1552 1550 1548 1546 1544 1542 1540 1539 1537 1535 1533 1531 1529 1527 1525 1524 1522 1520 1518 1516 1515 1513 1512 1511 1509 1508
1528 1526 1526 1525 1523 1521 1519 1520 1526 1527 1518 1516 1524 1527 1523 1521 1521 1523 1523 1518 1516 1518 1525 1532 1527 1521 1532 1547 1556 1562 1564 1567 1569 1570 1572 1573 1573 1574 1574 1574 1574 1573 1573 1572 1571 1571 1570 1569 1568 1567 1566 1565 1564 1563 1562 1561 1559 1557 1556 1554 1552 1550 1548 1545 1543 1541 1539 1537 1535 1533 1531 1529 1528 1525 1523 1521 1519 1518 1516 1514 1512 1510 1509 1507 1506 1504
1530 1527 1527 1527 1523 1520 1522 1526 1529 1528 1522 1521 1527 1527 1524 1524 1521 1521 1522 1516 1517 1522 1520 1525 1532 1522 1522 1545 1559 1560 1562 1565 1567 1570 1571 1573 1574 1574 1575 1574 1574 1574 1573 1573 1572 1571 1571 1570 1569 1567 1567 1566 1564 1563 1562 1560 1559 1557 1555 1553 1551 1549 1547 1544 1542 1540 1538 1536 1534 1531 1529 1527 1525 1523 1521 1519 1517 1515 1513 1511 1509 1507 1506 1504 1502 1501
1530 1530 1531 1529 1525 1525 1528 1530 1531 1530 1525 1525 1529 1528 1526 1526 1524 1523 1522 1517 1521 1525 1515 1515 1525 1517 1520 1549 1562 1556 1558 1561 1565 1569 1571 1573 1574 1575 1575 1575 1575 1575 1574 1573 1573 1572 1571 1570 1569 1568 1567 1566 1564 1563 1561 1560 1558 1556 1555 1553 1550 1548 1545 1543 1541 1539 1537 1534 1532 1530 1527 1525 1523 1521 1519 1516 1515 1512 1510 1508 1506 1504 1503 1501 1499 1497
1531 1532 1532 1532 1531 1531 1531 1531 1532 1531 1528 1529 1528 1524 1523 1523 1524 1524 1521 1522 1523 1520 1515 1516 1520 1513 1516 1542 1555 1553 1555 1558 1563 1568 1570 1573 1575 1575 1576 1575 1576 1575 1574 1574 1573 1572 1571 1570 1569 1567 1566 1565 1563 1562 1560 1559 1557 1555 1553 1551 1549 1547 1544 1542 1540 1537 1535 1533 1531 1529 1526 1524 1521 1519 1517 1514 1512 1510 1508 1506 1504 1502 1500 1498 1496 1493
1530 1530 1531 1534 1534 1533 1532 1530 1531 1532 1530 1529 1525 1520 1519 1516 1519 1521 1520 1525 1521 1512 1518 1526 1526 1518 1517 1536 1552 1556 1559 1560 1563 1567 1569 1573 1574 1575 1576 1576 1576 1576 1575 1574 1573 1572 1571 1569 1568 1566 1565 1563 1562 1560 1559 1557 1555 1553 1551 1549 1546 1545 1542 1540 1538 1536 1534 1532 1530 1527 1525 1523 1520 1517 1515 1512 1510 1508 1506 1504 1501 1499 1497 1495 1492 1490
1527 1531 1533 1534 1535 1534 1532 1526 1526 1529 1528 1525 1520 1518 1516 1511 1513 1516 1513 1518 1514 1510 1524 1532 1527 1523 1528 1547 1559 1560 1563 1564 1565 1568 1570 1572 1574 1575 1577 1576 1576 1576 1575 1574 1572 1571 1570 1569 1567 1566 1564 1563 1561 1559 1557 1555 1554 1551 1549 1546 1544 1543 1540 1538 1536 1534 1532 1530 1527 1525 1523 1520 1518 1515 1513 1510 1508 1506 1503 1501 1499 1497 1494 1491 1489 1487
1527 1530 1532 1533 1533 1535 1533 1527 1525 1527 1525 1523 1522 1521 1520 1517 1521 1520 1511 1512 1511 1514 1529 1535 1528 1527 1538 1557 1565 1562 1566 1568 1568 1571 1572 1573 1575 1576 1576 1576 1576 1575 1574 1573 1572 1571 1569 1568 1567 1565 1564 1562 1560 1558 1556 1554 1552 1550 1548 1545 1543 1541 1538 1536 1533 1531 1529 1527 1525 1523 1520 1518 1516 1513 1510 1508 1506 1503 1501 1499 1496 1494 1491 1488 1486 1484
1534 1530 1533 1535 1535 1537 1536 1535 1535 1533 1529 1529 1529 1526 1523 1524 1528 1526 1516 1515 1517 1517 1525 1532 1533 1533 1542 1558 1566 1567 1569 1570 1571 1573 1574 1575 1576 1576 1576 1576 1575 1575 1573 1572 1571 1570 1569 1567 1566 1564 1563 1561 1559 1557 1555 1553 1551 1548 1546 1544 1541 1538 1536 1534 1531 1529 1527 1524 1522 1520 1518 1516 1513 1511 1508 1506 1503 1501 1499 1496 1494 1491 1489 1486 1483 1480
1538 1533 1539 1541 1540 1540 1539 1540 1541 1536 1530 1531 1531 1528 1527 1530 1532 1530 1529 1534 1536 1527 1524 1534 1545 1553 1560 1565 1569 1570 1571 1572 1574 1574 1575 1576 1576 1576 1576 1576 1575 1574 1573 1572 1571 1570 1568 1567 1565 1564 1562 1560 1559 1556 1554 1552 1549 1547 1544 1542 1539 1537 1534 1532 1529 1527 1525 1522 1520 1518 1515 1513 1511 1508 1505 1503 1501 1498 1496 1493 1491 1488 1486 1483 1480 1477
1542 1536 1539 1542 1541 1541 1541 1541 1541 1538 1533 1530 1530 1531 1535 1539 1536 1533 1536 1543 1543 1533 1528 1536 1549 1561 1567 1567 1569 1571 1572 1573 1574 1574 1576 1576 1576 1576 1576 1575 1575 1574 1573 1572 1570 1569 1568 1566 1564 1563 1561 1559 1557 1555 1552 1550 1547 1545 1542 1540 1537 1535 1532 1530 1527 1525 1522 1520 1518 1515 1513 1510 1508 1506 1503 1500 1497 1495 1493 1490 1487 1484 1482 1480 1477 1473
1553 1542 1539 1542 1541 1540 1542 1542 1540 1541 1538 1533 1534 1536 1538 1540 1537 1536 1538 1537 1535 1530 1526 1533 1545 1554 1557 1561 1570 1573 1571 1573 1574 1574 1576 1576 1576 1576 1575 1575 1574 1573 1572 1571 1569 1568 1566 1565 1563 1562 1560 1558 1555 1553 1550 1548 1546 1543 1541 1538 1535 1532 1530 1527 1525 1522 1520 1517 1515 1512 1510 1508 1505 1503 1500 1497 1495 1492 1489 1486 1484 1481 1478 1476 1473 1469
1558 1547 1538 1542 1543 1540 1541 1541 1539 1541 1540 1538 1540 1541 1539 1538 1536 1538 1541 1539 1539 1534 1527 1534 1546 1551 1553 1560 1571 1572 1569 1573 1574 1574 1576 1576 1576 1576 1575 1575 1573 1572 1572 1570 1569 1567 1565 1564 1562 1560 1559 1556 1554 1551 1549 1547 1544 1541 1539 1536 1534 1531 1528 1525 1522 1520 1518 1515 1513 1510 1508 1505 1502 1500 1497 1494 1492 1489 1486 1483 1480 1477 1474 1471 1469 1465
1558 1551 1541 1539 1542 1541 1539 1540 1542 1544 1543 1541 1542 1542 1543 1544 1541 1542 1543 1542 1544 1539 1532 1534 1537 1545 1559 1566 1567 1568 1569 1573 1574 1574 1576 1575 1575 1575 1574 1574 1572 1571 1571 1569 1568 1566 1564 1563 1561 1559 1558 1555 1552 1549 1547 1545 1542 1539 1537 1534 1531 1528 1526 1523 1520 1518 1515 1513 1511 1508 1505 1502 1499 1497 1494 1491 1488 1485 1483 1480 1477 1473 1470 1467 1465 1462
1556 1554 1547 1539 1538 1541 1545 1549 1553 1552 1550 1546 1546 1548 1551 1550 1546 1546 1545 1545 1546 1541 1538 1539 1534 1545 1567 1569 1565 1569 1571 1573 1574 1574 1575 1575 1575 1574 1573 1573 1571 1570 1569 1568 1566 1565 1563 1562 1560 1558 1556 1553 1550 1548 1545 1543 1540 1537 1535 1532 1529 1526 1523 1521 1518 1515 1513 1510 1508 1505 1502 1499 1496 1493 1490 1488 1485 1482 1479 1476 1473 1470 1467 1464 1461 1458
1558 1557 1554 1545 1540 1545 1554 1560 1560 1557 1556 1554 1553 1558 1561 1557 1552 1548 1545 1548 1550 1546 1546 1547 1540 1550 1570 1571 1569 1573 1572 1573 1575 1574 1575 1574 1574 1573 1572 1571 1570 1569 1568 1566 1565 1563 1562 1560 1558 1556 1554 1551 1548 1546 1543 1541 1538 1535 1532 1529 1527 1524 1521 1518 1515 1513 1510 1507 1505 1502 1499 1496 1493 1490 1487 1484 1481 1478 1475 1472 1469 1467 1463 1460 1458 1455
1564 1561 1558 1550 1548 1553 1558 1561 1561 1560 1560 1558 1560 1564 1565 1562 1559 1554 1548 1550 1553 1551 1552 1550 1544 1555 1572 1573 1571 1573 1573 1574 1575 1574 1574 1573 1572 1572 1571 1569 1568 1567 1566 1565 1563 1562 1560 1558 1556 1554 1552 1549 1546 1543 1541 1538 1536 1533 1530 1527 1524 1522 1519 1516 1513 1510 1508 1505 1502 1499 1496 1493 1490 1487 1484 1481 1478 1475 1472 1469 1466 1463 1460 1457 1454 1452
1564 1563 1559 1550 1549 1554 1558 1560 1562 1561 1559 1559 1563 1568 1569 1569 1569 1565 1561 1560 1557 1554 1554 1550 1545 1555 1570 1573 1572 1573 1574 1574 1574 1573 1573 1572 1571 1571 1569 1568 1567 1565 1564 1563 1561 1560 1559 1557 1554 1552 1550 1547 1544 1541 1539 1536 1533 1530 1528 1525 1522 1519 1516 1513 1511 1508 1505 1502 1499 1496 1493 1490 1487 1483 1480 1477 1474 1471 1468 1466 1463 1460 1457 1454 1451 1448
1563 1563 1560 1553 1549 1551 1552 1554 1555 1556 1558 1562 1567 1571 1574 1575 1575 1571 1569 1564 1559 1560 1563 1557 1547 1553 1567 1572 1571 1573 1573 1573 1573 1573 1572 1571 1570 1569 1567 1566 1565 1564 1563 1561 1560 1559 1557 1555 1552 1550 1547 1545 1542 1539 1536 1534 1531 1528 1526 1523 1520 1517 1514 1511 1508 1505 1503 1499 1496 1493 1490 1487 1483 1480 1477 1474 1471 1468 1465 1462 1459 1456 1453 1450 1446 1443
1565 1565 1563 1559 1558 1558 1554 1554 1556 1559 1562 1565 1570 1574 1575 1576 1575 1570 1564 1557 1556 1563 1567 1560 1552 1554 1565 1571 1570 1571 1572 1572 1571 1571 1571 1570 1569 1567 1566 1565 1563 1562 1561 1559 1558 1557 1555 1553 1550 1548 1545 1543 1540 1537 1534 1531 1529 1526 1523 1521 1518 1514 1511 1509 1506 1503 1500 1497 1493 1490 1487 1484 1481 1477 1474 1471 1468 1464 1461 1458 1455 1452 1448 1445 1441 1438
1569 1569 1569 1566 1564 1563 1561 1562 1567 1569 1567 1568 1574 1577 1576 1577 1577 1571 1562 1559 1565 1569 1563 1560 1563 1563 1563 1566 1568 1570 1570 1570 1570 1570 1569 1568 1567 1566 1565 1563 1562 1561 1559 1558 1556 1554 1552 1550 1548 1545 1543 1540 1538 1535 1532 1529 1526 1524 1520 1518 1515 1512 1509 1506 1504 1501 1498 1494 1491 1487 1484 1481 1478 1474 1470 1467 1464 1461 1457 1454 1451 1447 1444 1440 1436 1433
1566 1567 1574 1575 1570 1568 1569 1571 1573 1573 1571 1574 1579 1580 1577 1577 1576 1572 1568 1570 1574 1571 1560 1559 1568 1567 1561 1564 1568 1570 1570 1570 1570 1569 1568 1567 1565 1564 1563 1561 1560 1559 1557 1556 1554 1552 1550 1548 1545 1543 1540 1538 1536 1533 1530 1527 1524 1521 1518 1515 1512 1509 1507 1504 1500 1497 1494 1491 1488 1484 1481 1478 1474 1470 1467 1463 1460 1457 1453 1450 1446 1443 1439 1435 1431 1428
1566 1566 1576 1579 1573 1572 1575 1575 1574 1574 1575 1579 1580 1579 1579 1579 1577 1576 1577 1577 1577 1574 1565 1561 1566 1566 1562 1565 1569 1570 1570 1570 1569 1568 1567 1565 1564 1562 1561 1560 1558 1557 1556 1554 1552 1550 1548 1545 1543 1541 1538 1536 1533 1530 1527 1524 1521 1519 1516 1513 1510 1507 1504 1501 1498 1494 1491 1488 1485 1481 1478 1474 1470 1467 1463 1460 1456 1453 1449 1445 1442 1438 1434 1430 1427 1423
1568 1567 1578 1581 1574 1572 1575 1575 1575 1575 1577 1580 1581 1579 1579 1579 1579 1579 1578 1577 1578 1576 1569 1565 1566 1566 1564 1566 1569 1570 1570 1569 1568 1567 1565 1563 1562 1560 1559 1558 1556 1555 1554 1552 1550 1548 1545 1543 1541 1538 1536 1533 1530 1528 1525 1522 1519 1516 1513 1510 1507 1505 1501 1498 1495 1491 1488 1485 1481 1478 1474 1470 1467 1463 1460 1456 1452 1448 1445 1441 1437 1433 1429 1426 1422 1419
1567 1568 1579 1581 1570 1567 1574 1577 1576 1575 1575 1577 1579 1579 1579 1578 1579 1580 1578 1577 1578 1574 1569 1570 1570 1565 1564 1568 1570 1569 1569 1568 1566 1565 1563 1561 1560 1558 1557 1556 1555 1553 1552 1550 1548 1545 1543 1541 1538 1536 1533 1531 1528 1526 1522 1519 1516 1513 1510 1508 1505 1502 1498 1495 1492 1488 1485 1482 1478 1475 1471 1467 1463 1460 1456 1452 1448 1444 1440 1436 1432 1428 1424 1421 1417 1414
1571 1571 1578 1577 1562 1558 1571 1575 1573 1576 1577 1577 1577 1578 1579 1579 1578 1578 1577 1576 1576 1574 1572 1572 1568 1562 1564 1569 1568 1568 1568 1566 1564 1563 1561 1559 1558 1557 1556 1554 1553 1551 1550 1548 1545 1543 1541 1538 1536 1533 1531 1528 1526 1523 1519 1517 1513 1510 1508 1505 1502 1499 1495 1492 1489 1485 1482 1479 1475 1472 1468 1464 1460 1456 1452 1448 1444 1440 1436 1432 1428 1424 1420 1416 1412 1409
1581 1574 1575 1578 1564 1556 1565 1572 1574 1575 1569 1568 1574 1578 1580 1580 1578 1577 1575 1573 1573 1574 1573 1569 1564 1563 1567 1568 1567 1566 1566 1564 1563 1562 1560 1558 1557 1556 1554 1553 1552 1550 1548 1545 1543 1541 1538 1536 1533 1531 1528 1526 1523 1520 1517 1514 1511 1508 1505 1502 1499 1496 1492 1489 1486 1483 1479 1476 1472 1468 1465 1460 1456 1452 1448 1444 1440 1436 1432 1427 1423 1419 1415 1411 1407 1404
1584 1577 1578 1583 1571 1559 1563 1569 1569 1564 1556 1560 1574 1580 1580 1579 1578 1577 1573 1570 1570 1571 1570 1567 1565 1567 1569 1567 1566 1565 1564 1563 1562 1560 1559 1557 1555 1554 1553 1552 1550 1548 1545 1543 1541 1539 1536 1534 1531 1529 1526 1524 1520 1517 1514 1511 1508 1505 1502 1499 1496 1493 1490 1486 1483 1480 1476 1473 1469 1465 1461 1457 1453 1448 1444 1440 1436 1432 1428 1423 1419 1415 1411 1407 1403 1399
1578 1578 1582 1587 1578 1568 1568 1567 1559 1553 1558 1571 1579 1579 1579 1579 1578 1576 1571 1567 1568 1569 1569 1568 1568 1568 1568 1567 1566 1565 1563 1562 1560 1558 1556 1555 1553 1553 1552 1550 1548 1546 1543 1541 1539 1537 1534 1531 1529 1526 1524 1521 1518 1515 1512 1508 1505 1502 1499 1496 1493 1490 1487 1483 1480 1477 1473 1469 1466 1462 1458 1454 1449 1445 1441 1437 1433 1428 1424 1420 1415 1411 1407 1403 1399 1395
1575 1577 1580 1583 1579 1572 1572 1572 1563 1559 1569 1579 1578 1577 1579 1578 1577 1576 1569 1563 1566 1568 1568 1568 1568 1568 1567 1566 1565 1564 1562 1560 1557 1554 1553 1552 1551 1551 1550 1548 1546 1544 1541 1539 1537 1534 1532 1529 1527 1524 1521 1518 1515 1512 1509 1506 1502 1499 1496 1493 1490 1486 1484 1481 1477 1474 1470 1466 1463 1459 1455 1450 1446 1441 1437 1433 1429 1425 1420 1416 1411 1408 1403 1399 1395 1391
1576 1576 1575 1577 1580 1579 1578 1576 1569 1565 1569 1575 1576 1577 1579 1578 1578 1578 1573 1565 1564 1567 1568 1568 1567 1567 1566 1565 1564 1562 1560 1557 1553 1550 1550 1551 1550 1549 1548 1546 1543 1541 1539 1537 1534 1532 1529 1527 1525 1522 1519 1516 1513 1509 1506 1503 1499 1496 1493 1490 1487 1484 1481 1478 1475 1471 1467 1464 1460 1456 1452 1448 1443 1438 1434 1430 1425 1421 1416 1412 1408 1404 1400 1395 1390 1387
1577 1577 1573 1573 1581 1586 1581 1574 1569 1564 1561 1566 1572 1576 1578 1578 1577 1580 1578 1568 1563 1566 1568 1567 1567 1565 1564 1563 1562 1561 1559 1555 1550 1548 1549 1550 1548 1547 1545 1543 1541 1539 1537 1534 1532 1529 1527 1525 1522 1519 1516 1513 1510 1507 1504 1500 1497 1494 1490 1487 1484 1481 1478 1475 1472 1468 1464 1461 1457 1453 1449 1445 1440 1435 1431 1426 1422 1417 1412 1408 1404 1401 1397 1392 1387 1383
1579 1581 1578 1576 1583 1589 1583 1574 1573 1569 1563 1565 1572 1576 1577 1577 1576 1579 1574 1563 1560 1566 1567 1565 1565 1564 1562 1562 1561 1560 1559 1554 1548 1548 1550 1549 1547 1545 1543 1540 1539 1537 1534 1532 1530 1527 1524 1522 1519 1516 1514 1511 1508 1505 1501 1498 1495 1492 1488 1485 1482 1479 1476 1472 1469 1465 1462 1458 1454 1450 1446 1442 1437 1433 1428 1424 1419 1414 1409 1405 1401 1397 1393 1389 1384 1380
1581 1582 1580 1578 1585 1592 1589 1579 1573 1569 1565 1568 1573 1574 1575 1575 1577 1576 1565 1554 1559 1567 1564 1563 1564 1562 1561 1561 1559 1558 1558 1553 1549 1548 1548 1547 1545 1542 1541 1538 1536 1534 1532 1529 1527 1524 1522 1519 1516 1514 1511 1508 1505 1502 1499 1495 1492 1489 1486 1483 1480 1477 1473 1470 1467 1463 1459 1455 1451 1447 1443 1439 1435 1430 1426 1421 1416 1411 1407 1402 1398 1393 1389 1385 1382 1377
1586 1588 1588 1586 1587 1592 1591 1582 1572 1566 1566 1570 1572 1573 1574 1575 1574 1568 1559 1555 1562 1564 1562 1562 1562 1560 1559 1559 1557 1556 1555 1552 1550 1548 1546 1544 1542 1540 1538 1536 1534 1532 1529 1527 1525 1522 1519 1517 1514 1511 1509 1505 1502 1499 1496 1493 1489 1487 1484 1480 1477 1474 1471 1468 1465 1461 1457 1453 1449 1445 1441 1437 1432 1428 1423 1419 1414 1408 1404 1400 1395 1390 1386 1382 1378 1374
1586 1588 1591 1590 1587 1589 1592 1587 1574 1564 1565 1570 1571 1571 1573 1573 1567 1560 1558 1560 1562 1561 1560 1561 1559 1558 1557 1556 1555 1554 1552 1550 1548 1546 1543 1542 1540 1538 1536 1534 1531 1529 1527 1524 1522 1519 1517 1514 1511 1509 1506 1503 1500 1496 1493 1490 1487 1484 1481 1478 1475 1472 1468 1466 1462 1458 1454 1450 1446 1443 1438 1434 1430 1426 1421 1416 1411 1406 1401 1397 1392 1388 1384 1379 1375 1371
1586 1583 1583 1586 1586 1586 1590 1586 1573 1563 1564 1569 1570 1569 1570 1568 1563 1559 1560 1561 1560 1559 1559 1558 1556 1556 1555 1553 1553 1551 1549 1547 1545 1543 1541 1539 1537 1535 1533 1531 1529 1526 1524 1522 1519 1517 1514 1511 1509 1506 1504 1501 1498 1494 1491 1488 1484 1481 1478 1475 1472 1469 1466 1463 1460 1456 1452 1448 1444 1440 1436 1432 1428 1423 1418 1414 1408 1403 1398 1394 1390 1385 1381 1377 1372 1368
1587 1582 1579 1583 1585 1583 1580 1575 1567 1561 1564 1567 1567 1566 1566 1563 1561 1561 1560 1559 1558 1557 1557 1555 1554 1553 1552 1551 1550 1548 1546 1544 1542 1540 1539 1537 1535 1533 1531 1528 1527 1524 1521 1520 1517 1514 1512 1509 1507 1504 1502 1499 1496 1493 1489 1486 1482 1479 1476 1473 1470 1467 1464 1461 1458 1454 1450 1446 1441 1437 1433 1429 1425 1421 1416 1411 1406 1401 1396 1392 1387 1383 1379 1375 1370 1366
1581 1580 1578 1580 1582 1579 1573 1566 1562 1561 1563 1564 1563 1563 1562 1561 1560 1560 1559 1557 1557 1556 1554 1553 1552 1550 1549 1548 1546 1544 1543 1542 1539 1538 1536 1534 1533 1531 1528 1526 1524 1522 1519 1517 1515 1512 1510 1507 1505 1502 1500 1497 1494 1490 1487 1484 1480 1477 1474 1471 1468 1465 1461 1458 1455 1452 1448 1443 1439 1435 1431 1427 1423 1418 1414 1409 1404 1399 1394 1389 1385 1381 1376 1373 1369 1365
1579 1580 1581 1580 1579 1576 1569 1562 1562 1562 1561 1561 1561 1560 1560 1559 1558 1557 1556 1555 1555 1553 1552 1551 1549 1548 1547 1545 1543 1542 1540 1538 1537 1536 1534 1532 1530 1528 1526 1524 1522 1520 1517 1515 1512 1510 1508 1505 1503 1500 1497 1495 1492 1488 1485 1482 1478 1475 1472 1469 1466 1462 1459 1456 1453 1449 1445 1441 1437 1433 1429 1424 1420 1416 1411 1407 1403 1398 1393 1388 1384 1379 1375 1371 1367 1364
1579 1579 1580 1578 1578 1575 1566 1559 1560 1561 1559 1559 1559 1557 1557 1557 1555 1555 1554 1553 1552 1551 1549 1548 1546 1545 1544 1542 1540 1539 1537 1536 1534 1533 1531 1529 1527 1525 1523 1521 1519 1517 1515 1512 1510 1508 1505 1503 1500 1497 1494 1492 1489 1486 1483 1480 1477 1473 1470 1467 1464 1461 1457 1454 1451 1447 1443 1439 1435 1431 1426 1422 1417 1413 1409 1405 1401 1397 1392 1388 1383 1379 1374 1370 1366 1363
1577 1578 1577 1575 1575 1572 1563 1557 1559 1559 1556 1556 1556 1555 1555 1554 1553 1552 1551 1550 1549 1548 1546 1545 1544 1542 1541 1539 1538 1536 1534 1533 1532 1530 1528 1526 1524 1522 1521 1518 1516 1514 1512 1510 1508 1505 1503 1501 1498 1495 1492 1489 1486 1484 1481 1478 1475 1472 1468 1465 1462 1458 1455 1452 1448 1445 1441 1437 1433 1429 1424 1420 1415 1411 1406 1403 1399 1395 1391 1386 1382 1377 1374 1370 1366 1362
1576 1576 1574 1572 1571 1567 1560 1556 1557 1556 1553 1553 1553 1553 1553 1552 1551 1550 1548 1547 1546 1545 1543 1542 1541 1539 1538 1537 1535 1533 1532 1530 1529 1527 1525 1524 1522 1520 1518 1516 1514 1512 1509 1507 1505 1503 1501 1498 1495 1492 1490 1487 1484 1481 1478 1476 1473 1470 1467 1464 1460 1456 1453 1449 1446 1443 1439 1435 1431 1427 1422 1418 1414 1409 1405 1401 1397 1394 1390 1386 1381 1376 1372 1369 1366 1363
1573 1571 1570 1571 1568 1562 1556 1555 1556 1554 1552 1551 1551 1551 1550 1549 1548 1547 1546 1544 1543 1542 1541 1540 1538 1537 1536 1534 1532 1531 1529 1527 1526 1524 1523 1521 1519 1517 1515 1513 1511 1509 1507 1505 1503 1501 1498 1496 1493 1490 1487 1484 1482 1479 1476 1474 1471 1468 1465 1462 1458 1455 1451 1446 1443 1440 1436 1432 1429 1425 1421 1416 1412 1408 1404 1399 1395 1391 1388 1385 1382 1377 1373 1369 1365 1362
1565 1563 1563 1564 1562 1556 1552 1553 1554 1554 1552 1550 1549 1549 1548 1547 1546 1545 1543 1542 1541 1539 1538 1537 1536 1534 1533 1531 1529 1528 1526 1525 1523 1522 1520 1519 1517 1515 1513 1511 1509 1506 1504 1502 1500 1498 1496 1493 1491 1488 1485 1482 1480 1477 1474 1472 1469 1466 1463 1460 1456 1453 1449 1445 1441 1437 1434 1430 1427 1423 1419 1415 1410 1406 1402 1398 1394 1389 1384 1381 1378 1376 1373 1368 1364 1361